| time (UTC) | temp F | wind direction | speed knots | gust knots | rain 1hr in | rain 24hr in | rain mn in | humidity % | barometer mb |
| 20260905224603 | 88 | 335 | 4.3 | 17.4 | 0.00 | 0.07 | 0.07 | 74 | 1007.6 |
| 20260905224103 | 89 | 16 | 6.1 | 10.4 | 0.00 | 0.07 | 0.07 | 74 | 1007.5 |
| 20260905223604 | 89 | 18 | 3.5 | 13.0 | 0.00 | 0.07 | 0.07 | 73 | 1007.5 |
| 20260905222603 | 90 | 27 | 5.2 | 10.4 | 0.00 | 0.07 | 0.07 | 73 | 1007.4 |
| 20260905222104 | 90 | 354 | 0.9 | 14.8 | 0.00 | 0.07 | 0.07 | 73 | 1007.4 |
| 20260905221603 | 90 | 351 | 0.0 | 0.0 | 0.00 | 0.07 | 0.07 | 72 | 1007.4 |
| 20260905221104 | 90 | 1 | 0.0 | 0.0 | 0.00 | 0.07 | 0.07 | 71 | 1007.4 |
| 20260905220604 | 90 | 18 | 0.0 | 0.0 | 0.00 | 0.07 | 0.07 | 70 | 1007.3 |
| 20260905220104 | 90 | 34 | 0.0 | 0.0 | 0.00 | 0.07 | 0.07 | 69 | 1007.2 |
| 20260905215604 | 90 | 24 | 0.0 | 0.0 | 0.00 | 0.07 | 0.07 | 68 | 1007.2 |
| 20260905215103 | 91 | 145 | 0.0 | 0.0 | 0.00 | 0.07 | 0.07 | 68 | 1007.2 |
| 20260905214604 | 91 | 26 | 0.0 | 0.0 | 0.00 | 0.07 | 0.07 | 70 | 1007.2 |
| 20260905213603 | 91 | 21 | 0.0 | 0.0 | 0.00 | 0.07 | 0.07 | 70 | 1007.1 |
| 20260905213104 | 91 | 349 | 0.0 | 0.0 | 0.00 | 0.07 | 0.07 | 70 | 1007.1 |
| 20260905212603 | 91 | 42 | 0.0 | 0.0 | 0.00 | 0.07 | 0.07 | 70 | 1007.1 |
| 20260905211603 | 91 | 65 | 0.0 | 0.0 | 0.00 | 0.07 | 0.07 | 69 | 1007.2 |
| 20260905211103 | 92 | 355 | 0.0 | 0.0 | 0.00 | 0.07 | 0.07 | 69 | 1007.2 |
| 20260905210604 | 92 | 21 | 0.0 | 0.0 | 0.00 | 0.07 | 0.07 | 68 | 1007.1 |
| 20260905210103 | 92 | 40 | 0.0 | 0.0 | 0.00 | 0.07 | 0.07 | 68 | 1007.2 |
| 20260905205603 | 92 | 61 | 0.0 | 0.0 | 0.00 | 0.07 | 0.07 | 68 | 1007.3 |
| 20260905205103 | 92 | 37 | 0.0 | 0.0 | 0.00 | 0.07 | 0.07 | 69 | 1007.3 |
| 20260905204603 | 92 | 19 | 0.0 | 0.0 | 0.00 | 0.07 | 0.07 | 69 | 1007.4 |
| 20260905204104 | 92 | 3 | 0.0 | 0.0 | 0.00 | 0.07 | 0.07 | 68 | 1007.4 |
| 20260905203603 | 92 | 25 | 0.0 | 0.0 | 0.00 | 0.07 | 0.07 | 68 | 1007.3 |
| 20260905203103 | 93 | 3 | 0.0 | 0.0 | 0.00 | 0.07 | 0.07 | 68 | 1007.3 |
| 20260905202604 | 93 | 59 | 0.0 | 0.0 | 0.00 | 0.07 | 0.07 | 68 | 1007.4 |
| 20260905202103 | 93 | 11 | 0.0 | 0.0 | 0.00 | 0.07 | 0.07 | 67 | 1007.4 |
| 20260905201604 | 93 | 346 | 0.0 | 0.0 | 0.00 | 0.07 | 0.07 | 65 | 1007.4 |
| 20260905201103 | 93 | 293 | 0.0 | 0.0 | 0.00 | 0.07 | 0.07 | 65 | 1007.4 |
| 20260905200603 | 93 | 23 | 0.0 | 0.0 | 0.00 | 0.07 | 0.07 | 65 | 1007.4 |
| 20260905200104 | 93 | 2 | 0.0 | 0.0 | 0.00 | 0.07 | 0.07 | 65 | 1007.5 |
| 20260905194603 | 94 | 351 | 0.0 | 0.0 | 0.00 | 0.07 | 0.07 | 64 | 1007.4 |
| 20260905194104 | 94 | 310 | 0.0 | 0.0 | 0.00 | 0.07 | 0.07 | 63 | 1007.6 |
| 20260905193604 | 94 | 92 | 0.0 | 0.0 | 0.00 | 0.07 | 0.07 | 66 | 1007.5 |
| 20260905193103 | 93 | 308 | 0.0 | 0.0 | 0.00 | 0.07 | 0.07 | 67 | 1007.7 |
| 20260905192604 | 93 | 40 | 0.0 | 0.0 | 0.00 | 0.07 | 0.07 | 67 | 1007.8 |
| 20260905192103 | 93 | 3 | 0.0 | 0.0 | 0.00 | 0.07 | 0.07 | 65 | 1007.8 |
| 20260905191604 | 93 | 26 | 0.0 | 0.0 | 0.00 | 0.07 | 0.07 | 67 | 1007.8 |
| 20260905191103 | 93 | 296 | 0.0 | 0.0 | 0.00 | 0.07 | 0.07 | 65 | 1007.9 |
| 20260905185603 | 93 | 328 | 0.0 | 0.0 | 0.00 | 0.07 | 0.07 | 70 | 1008.0 |
| 20260905185104 | 92 | 113 | 0.0 | 0.0 | 0.00 | 0.07 | 0.07 | 69 | 1008.0 |
| 20260905184603 | 93 | 309 | 0.0 | 0.0 | 0.00 | 0.07 | 0.07 | 68 | 1008.1 |
| 20260905184104 | 92 | 14 | 0.0 | 0.0 | 0.00 | 0.07 | 0.07 | 70 | 1008.3 |
| 20260905183604 | 92 | 260 | 0.0 | 0.0 | 0.00 | 0.07 | 0.07 | 70 | 1008.4 |
| 20260905183103 | 91 | 330 | 0.0 | 0.0 | 0.00 | 0.07 | 0.07 | 72 | 1008.4 |
| 20260905182603 | 91 | 42 | 0.0 | 0.0 | 0.00 | 0.07 | 0.07 | 71 | 1008.3 |
| 20260905182103 | 92 | 34 | 0.0 | 0.0 | 0.00 | 0.07 | 0.07 | 69 | 1008.3 |
| 20260905181604 | 93 | 41 | 0.0 | 0.0 | 0.00 | 0.07 | 0.07 | 65 | 1008.4 |
| 20260905181103 | 94 | 22 | 0.0 | 0.0 | 0.00 | 0.07 | 0.07 | 61 | 1008.4 |
| 20260905180603 | 95 | 59 | 0.0 | 0.0 | 0.00 | 0.07 | 0.07 | 63 | 1008.4 |
| 20260905180103 | 96 | 23 | 0.0 | 0.0 | 0.00 | 0.07 | 0.07 | 63 | 1008.3 |
| 20260905175603 | 96 | 292 | 0.0 | 0.0 | 0.00 | 0.07 | 0.07 | 64 | 1008.3 |
| 20260905175103 | 96 | 186 | 0.0 | 0.0 | 0.00 | 0.07 | 0.07 | 63 | 1008.3 |
| 20260905174103 | 95 | 157 | 0.0 | 0.0 | 0.00 | 0.07 | 0.07 | 68 | 1008.4 |
| 20260905173603 | 94 | 231 | 0.0 | 0.0 | 0.00 | 0.07 | 0.07 | 68 | 1008.4 |
| 20260905173103 | 94 | 232 | 0.0 | 0.0 | 0.00 | 0.07 | 0.07 | 68 | 1008.7 |
| 20260905172604 | 93 | 99 | 0.0 | 0.0 | 0.00 | 0.07 | 0.07 | 68 | 1008.8 |
| 20260905172104 | 93 | 77 | 0.0 | 0.0 | 0.00 | 0.07 | 0.07 | 70 | 1008.8 |
| 20260905170104 | 93 | 46 | 0.0 | 0.0 | 0.00 | 0.07 | 0.07 | 73 | 1008.9 |
| 20260905165104 | 92 | 173 | 0.0 | 0.0 | 0.00 | 0.07 | 0.07 | 72 | 1008.9 |
| 20260905164604 | 93 | 183 | 0.0 | 0.0 | 0.00 | 0.07 | 0.07 | 72 | 1009.0 |
| 20260905164103 | 93 | 208 | 0.0 | 0.0 | 0.00 | 0.07 | 0.07 | 72 | 1009.1 |
| 20260905161603 | 91 | 138 | 0.0 | 0.0 | 0.00 | 0.07 | 0.07 | 77 | 1009.0 |
| 20260905155604 | 89 | 138 | 0.0 | 0.0 | 0.00 | 0.07 | 0.07 | 80 | 1009.3 |
| 20260905155103 | 89 | 109 | 0.0 | 0.0 | 0.04 | 0.07 | 0.07 | 81 | 1009.4 |
| 20260905154604 | 88 | 113 | 0.0 | 0.0 | 0.07 | 0.07 | 0.07 | 82 | 1009.4 |
| 20260905154104 | 88 | 153 | 0.0 | 0.0 | 0.07 | 0.07 | 0.07 | 82 | 1009.3 |
| 20260905153104 | 87 | 120 | 0.0 | 0.0 | 0.07 | 0.07 | 0.07 | 87 | 1009.1 |
| 20260905152604 | 86 | 127 | 0.0 | 0.0 | 0.07 | 0.07 | 0.07 | 88 | 1009.0 |
| 20260905151104 | 85 | 111 | 0.0 | 0.0 | 0.07 | 0.07 | 0.07 | 87 | 1009.0 |
| 20260905150603 | 85 | 110 | 0.0 | 0.0 | 0.07 | 0.07 | 0.07 | 85 | 1009.0 |
| 20260905145604 | 86 | 95 | 0.0 | 0.0 | 0.07 | 0.07 | 0.07 | 81 | 1009.0 |
| 20260905144603 | 87 | 294 | 0.0 | 0.0 | 0.00 | 0.00 | 0.00 | 79 | 1009.0 |
| 20260905144103 | 87 | 294 | 0.0 | 0.0 | 0.00 | 0.00 | 0.00 | 78 | 1009.1 |
| 20260905143603 | 87 | 295 | 0.0 | 0.0 | 0.00 | 0.00 | 0.00 | 79 | 1009.1 |
| 20260905142604 | 86 | 322 | 0.0 | 0.0 | 0.00 | 0.00 | 0.00 | 79 | 1009.0 |
| 20260905142104 | 86 | 322 | 0.0 | 0.0 | 0.00 | 0.00 | 0.00 | 79 | 1009.0 |
| 20260905141603 | 86 | 31 | 0.0 | 0.0 | 0.00 | 0.00 | 0.00 | 78 | 1009.0 |
| 20260905141104 | 85 | 354 | 0.0 | 0.0 | 0.00 | 0.00 | 0.00 | 81 | 1009.0 |
| 20260905140604 | 85 | 31 | 0.0 | 0.0 | 0.00 | 0.00 | 0.00 | 84 | 1009.0 |
| 20260905140103 | 84 | 22 | 0.0 | 0.0 | 0.00 | 0.00 | 0.00 | 85 | 1008.9 |
| 20260905135603 | 83 | 27 | 0.0 | 0.0 | 0.00 | 0.00 | 0.00 | 85 | 1008.7 |
| 20260905135104 | 82 | 39 | 0.0 | 0.0 | 0.00 | 0.00 | 0.00 | 86 | 1008.8 |
| 20260905134603 | 82 | 9 | 0.0 | 0.0 | 0.00 | 0.00 | 0.00 | 87 | 1008.7 |
| 20260905134103 | 81 | 28 | 0.0 | 0.0 | 0.00 | 0.00 | 0.00 | 89 | 1008.7 |
| 20260905133103 | 81 | 41 | 0.0 | 0.0 | 0.00 | 0.00 | 0.00 | 90 | 1008.6 |
| 20260905132604 | 80 | 41 | 0.0 | 0.0 | 0.00 | 0.00 | 0.00 | 91 | 1008.7 |
| 20260905132103 | 80 | 46 | 0.0 | 0.0 | 0.00 | 0.00 | 0.00 | 91 | 1008.8 |
| 20260905131104 | 80 | 34 | 0.0 | 0.0 | 0.00 | 0.00 | 0.00 | 92 | 1008.9 |
| 20260905130603 | 79 | 34 | 0.0 | 0.0 | 0.00 | 0.00 | 0.00 | 93 | 1009.0 |
| 20260905130104 | 79 | 34 | 0.0 | 0.0 | 0.00 | 0.00 | 0.00 | 93 | 1008.9 |
| 20260905125603 | 78 | 30 | 0.0 | 0.0 | 0.00 | 0.00 | 0.00 | 94 | 1008.9 |
| 20260905125104 | 78 | 30 | 0.0 | 0.0 | 0.00 | 0.00 | 0.00 | 95 | 1008.8 |
| 20260905124603 | 78 | 30 | 0.0 | 0.0 | 0.00 | 0.00 | 0.00 | 95 | 1008.8 |
| 20260905124103 | 78 | 30 | 0.0 | 0.0 | 0.00 | 0.00 | 0.00 | 95 | 1008.9 |
| 20260905123103 | 77 | 30 | 0.0 | 0.0 | 0.00 | 0.00 | 0.00 | 96 | 1008.8 |
| 20260905122603 | 77 | 30 | 0.0 | 0.0 | 0.00 | 0.00 | 0.00 | 96 | 1008.8 |
| 20260905121103 | 76 | 30 | 0.0 | 0.0 | 0.00 | 0.00 | 0.00 | 96 | 1008.8 |
| 20260905120604 | 76 | 30 | 0.0 | 0.0 | 0.00 | 0.00 | 0.00 | 96 | 1008.8 |
| 20260905115603 | 75 | 30 | 0.0 | 0.0 | 0.00 | 0.00 | 0.00 | 95 | 1008.7 |
| 20260905115104 | 75 | 30 | 0.0 | 0.0 | 0.00 | 0.00 | 0.00 | 95 | 1008.7 |
| 20260905114603 | 75 | 30 | 0.0 | 0.0 | 0.00 | 0.00 | 0.00 | 95 | 1008.7 |
| 20260905114103 | 75 | 30 | 0.0 | 0.0 | 0.00 | 0.00 | 0.00 | 95 | 1008.6 |
| 20260905113603 | 75 | 30 | 0.0 | 0.0 | 0.00 | 0.00 | 0.00 | 95 | 1008.6 |
| 20260905113103 | 75 | 30 | 0.0 | 0.0 | 0.00 | 0.00 | 0.00 | 95 | 1008.6 |
| 20260905112104 | 75 | 30 | 0.0 | 0.0 | 0.00 | 0.00 | 0.00 | 95 | 1008.6 |
| 20260905111603 | 75 | 30 | 0.0 | 0.0 | 0.00 | 0.00 | 0.00 | 95 | 1008.6 |
| 20260905111103 | 75 | 30 | 0.0 | 0.0 | 0.00 | 0.00 | 0.00 | 95 | 1008.6 |
| 20260905110603 | 75 | 30 | 0.0 | 0.0 | 0.00 | 0.00 | 0.00 | 95 | 1008.6 |
| 20260905110104 | 76 | 30 | 0.0 | 0.0 | 0.00 | 0.00 | 0.00 | 95 | 1008.5 |
| 20260905105604 | 76 | 30 | 0.0 | 0.0 | 0.00 | 0.00 | 0.00 | 95 | 1008.4 |
| 20260905104603 | 76 | 30 | 0.0 | 0.0 | 0.00 | 0.00 | 0.00 | 95 | 1008.4 |
| 20260905103604 | 76 | 30 | 0.0 | 0.0 | 0.00 | 0.00 | 0.00 | 94 | 1008.5 |
| 20260905103103 | 76 | 30 | 0.0 | 0.0 | 0.00 | 0.00 | 0.00 | 94 | 1008.5 |
| 20260905102603 | 76 | 30 | 0.0 | 0.0 | 0.00 | 0.00 | 0.00 | 94 | 1008.5 |
| 20260905102103 | 76 | 30 | 0.0 | 0.0 | 0.00 | 0.00 | 0.00 | 94 | 1008.5 |
| 20260905101603 | 76 | 30 | 0.0 | 0.0 | 0.00 | 0.00 | 0.00 | 95 | 1008.5 |
| 20260905101103 | 76 | 30 | 0.0 | 0.0 | 0.00 | 0.00 | 0.00 | 95 | 1008.6 |
| 20260905100603 | 76 | 30 | 0.0 | 0.0 | 0.00 | 0.00 | 0.00 | 95 | 1008.5 |
| 20260905100104 | 76 | 30 | 0.0 | 0.0 | 0.00 | 0.00 | 0.00 | 95 | 1008.5 |
| 20260905095603 | 76 | 30 | 0.0 | 0.0 | 0.00 | 0.00 | 0.00 | 95 | 1008.5 |
| 20260905094604 | 76 | 30 | 0.0 | 0.0 | 0.00 | 0.00 | 0.00 | 95 | 1008.5 |
| 20260905094103 | 76 | 30 | 0.0 | 0.0 | 0.00 | 0.00 | 0.00 | 95 | 1008.5 |
| 20260905093603 | 76 | 30 | 0.0 | 0.0 | 0.00 | 0.00 | 0.00 | 95 | 1008.5 |
| 20260905092603 | 76 | 30 | 0.0 | 0.0 | 0.00 | 0.00 | 0.00 | 95 | 1008.5 |
| 20260905092103 | 76 | 30 | 0.0 | 0.0 | 0.00 | 0.00 | 0.00 | 95 | 1008.5 |
| 20260905091603 | 76 | 30 | 0.0 | 0.0 | 0.00 | 0.00 | 0.00 | 95 | 1008.5 |
| 20260905091104 | 76 | 30 | 0.0 | 0.0 | 0.00 | 0.00 | 0.00 | 95 | 1008.5 |
| 20260905090603 | 76 | 30 | 0.0 | 0.0 | 0.00 | 0.00 | 0.00 | 95 | 1008.4 |
| 20260905090104 | 76 | 30 | 0.0 | 0.0 | 0.00 | 0.00 | 0.00 | 95 | 1008.4 |
| 20260905085603 | 76 | 30 | 0.0 | 0.0 | 0.00 | 0.00 | 0.00 | 94 | 1008.4 |
| 20260905085103 | 76 | 30 | 0.0 | 0.0 | 0.00 | 0.00 | 0.00 | 94 | 1008.3 |
| 20260905084103 | 76 | 30 | 0.0 | 0.0 | 0.00 | 0.00 | 0.00 | 95 | 1008.2 |
| 20260905083604 | 76 | 30 | 0.0 | 0.0 | 0.00 | 0.00 | 0.00 | 95 | 1008.1 |
| 20260905083104 | 76 | 30 | 0.0 | 0.0 | 0.00 | 0.00 | 0.00 | 95 | 1008.0 |
| 20260905082604 | 76 | 30 | 0.0 | 0.0 | 0.00 | 0.00 | 0.00 | 95 | 1008.0 |
| 20260905082103 | 76 | 30 | 0.0 | 0.0 | 0.00 | 0.00 | 0.00 | 95 | 1008.0 |
| 20260905081604 | 76 | 30 | 0.0 | 0.0 | 0.00 | 0.00 | 0.00 | 95 | 1008.0 |
| 20260905081104 | 76 | 30 | 0.0 | 0.0 | 0.00 | 0.00 | 0.00 | 95 | 1008.1 |
| 20260905080104 | 76 | 30 | 0.0 | 0.0 | 0.00 | 0.00 | 0.00 | 95 | 1008.0 |
| 20260905075604 | 76 | 30 | 0.0 | 0.0 | 0.00 | 0.00 | 0.00 | 94 | 1008.0 |
| 20260905075103 | 76 | 30 | 0.0 | 0.0 | 0.00 | 0.00 | 0.00 | 94 | 1007.9 |
| 20260905074104 | 76 | 30 | 0.0 | 0.0 | 0.00 | 0.00 | 0.00 | 94 | 1007.9 |
| 20260905073604 | 76 | 30 | 0.0 | 0.0 | 0.00 | 0.00 | 0.00 | 95 | 1007.9 |
| 20260905073103 | 76 | 30 | 0.0 | 0.0 | 0.00 | 0.00 | 0.00 | 94 | 1008.0 |
| 20260905072604 | 76 | 30 | 0.0 | 0.0 | 0.00 | 0.00 | 0.00 | 94 | 1008.0 |
| 20260905072104 | 76 | 30 | 0.0 | 0.0 | 0.00 | 0.00 | 0.00 | 94 | 1007.9 |
| 20260905071103 | 76 | 30 | 0.0 | 0.0 | 0.00 | 0.00 | 0.00 | 94 | 1008.0 |
| 20260905070604 | 76 | 30 | 0.0 | 0.0 | 0.00 | 0.00 | 0.00 | 94 | 1008.1 |
| 20260905065104 | 76 | 30 | 0.0 | 0.0 | 0.00 | 0.00 | 0.00 | 94 | 1008.2 |
| 20260905064603 | 76 | 30 | 0.0 | 0.0 | 0.00 | 0.00 | 0.00 | 94 | 1008.2 |
| 20260905064104 | 76 | 30 | 0.0 | 0.0 | 0.00 | 0.00 | 0.00 | 94 | 1008.3 |
| 20260905063604 | 76 | 30 | 0.0 | 0.0 | 0.00 | 0.00 | 0.00 | 94 | 1008.4 |
| 20260905063103 | 76 | 30 | 0.0 | 0.0 | 0.00 | 0.00 | 0.00 | 93 | 1008.4 |
| 20260905062604 | 76 | 30 | 0.0 | 0.0 | 0.00 | 0.00 | 0.00 | 93 | 1008.4 |
| 20260905062104 | 77 | 30 | 0.0 | 0.0 | 0.00 | 0.00 | 0.00 | 93 | 1008.5 |
| 20260905061603 | 77 | 30 | 0.0 | 0.0 | 0.00 | 0.00 | 0.00 | 93 | 1008.6 |
| 20260905061103 | 77 | 30 | 0.0 | 0.0 | 0.00 | 0.00 | 0.00 | 93 | 1008.6 |
| 20260905060604 | 77 | 30 | 0.0 | 0.0 | 0.00 | 0.00 | 0.00 | 93 | 1008.6 |
| 20260905060103 | 77 | 30 | 0.0 | 0.0 | 0.00 | 0.00 | 0.00 | 93 | 1008.6 |
| 20260905055603 | 77 | 30 | 0.0 | 0.0 | 0.00 | 0.00 | 0.00 | 93 | 1008.6 |
| 20260905055103 | 77 | 30 | 0.0 | 0.0 | 0.00 | 0.00 | 0.00 | 93 | 1008.6 |
| 20260905054604 | 77 | 30 | 0.0 | 0.0 | 0.00 | 0.00 | 0.00 | 92 | 1008.7 |
| 20260905054103 | 77 | 30 | 0.0 | 0.0 | 0.00 | 0.00 | 0.00 | 92 | 1008.7 |
| 20260905053603 | 77 | 30 | 0.0 | 0.0 | 0.00 | 0.00 | 0.00 | 92 | 1008.7 |
| 20260905052603 | 77 | 30 | 0.0 | 0.0 | 0.00 | 0.00 | 0.00 | 92 | 1008.8 |
| 20260905052103 | 77 | 30 | 0.0 | 0.0 | 0.00 | 0.00 | 0.00 | 92 | 1008.7 |
| 20260905051604 | 77 | 30 | 0.0 | 0.0 | 0.00 | 0.00 | 0.00 | 91 | 1008.7 |
| 20260905051104 | 77 | 30 | 0.0 | 0.0 | 0.00 | 0.00 | 0.00 | 91 | 1008.6 |
| 20260905050603 | 77 | 30 | 0.0 | 0.0 | 0.00 | 0.00 | 0.00 | 91 | 1008.5 |
| 20260905045604 | 78 | 30 | 0.0 | 0.0 | 0.00 | 0.00 | 0.00 | 91 | 1008.6 |
| 20260905043603 | 78 | 30 | 0.0 | 0.0 | 0.00 | 0.00 | 0.00 | 91 | 1008.8 |
| 20260905043103 | 78 | 30 | 0.0 | 0.0 | 0.00 | 0.00 | 0.00 | 91 | 1008.9 |
| 20260905042604 | 78 | 30 | 0.0 | 0.0 | 0.00 | 0.00 | 0.00 | 91 | 1008.8 |
| 20260905042103 | 79 | 30 | 0.0 | 0.0 | 0.00 | 0.00 | 0.00 | 91 | 1008.9 |
| 20260905041603 | 79 | 30 | 0.0 | 0.0 | 0.00 | 0.00 | 0.00 | 91 | 1008.9 |
| 20260905040604 | 79 | 30 | 0.0 | 0.0 | 0.00 | 0.00 | 0.00 | 91 | 1008.9 |
| 20260905040103 | 79 | 30 | 0.0 | 0.0 | 0.00 | 0.00 | 0.00 | 91 | 1008.9 |
| 20260905035603 | 79 | 30 | 0.0 | 0.0 | 0.00 | 0.00 | 0.00 | 90 | 1008.9 |
| 20260905034603 | 79 | 30 | 0.0 | 0.0 | 0.00 | 0.00 | 0.00 | 90 | 1008.9 |
| 20260905033603 | 79 | 28 | 0.0 | 0.0 | 0.00 | 0.00 | 0.00 | 90 | 1009.0 |
| 20260905033104 | 80 | 28 | 0.0 | 0.0 | 0.00 | 0.00 | 0.00 | 90 | 1009.1 |
| 20260905032603 | 80 | 28 | 0.0 | 0.0 | 0.00 | 0.00 | 0.00 | 90 | 1009.1 |
| 20260905032103 | 80 | 28 | 0.0 | 0.0 | 0.00 | 0.00 | 0.00 | 90 | 1009.1 |
| 20260905031603 | 80 | 28 | 0.0 | 0.0 | 0.00 | 0.00 | 0.00 | 90 | 1009.1 |
| 20260905031104 | 80 | 28 | 0.0 | 0.0 | 0.00 | 0.00 | 0.00 | 89 | 1009.1 |
| 20260905030603 | 80 | 28 | 0.0 | 0.0 | 0.00 | 0.00 | 0.00 | 89 | 1009.1 |
| 20260905025604 | 80 | 28 | 0.0 | 0.0 | 0.00 | 0.00 | 0.00 | 89 | 1009.1 |
| 20260905025104 | 80 | 28 | 0.0 | 0.0 | 0.00 | 0.00 | 0.00 | 89 | 1009.0 |
| 20260905024603 | 80 | 28 | 0.0 | 0.0 | 0.00 | 0.00 | 0.00 | 89 | 1009.0 |
| 20260905024103 | 80 | 118 | 0.0 | 0.0 | 0.00 | 0.00 | 0.00 | 90 | 1008.9 |
| 20260905023604 | 80 | 118 | 0.0 | 0.0 | 0.00 | 0.00 | 0.00 | 89 | 1008.9 |
| 20260905023103 | 80 | 118 | 0.0 | 0.0 | 0.00 | 0.00 | 0.00 | 89 | 1008.9 |
| 20260905022604 | 81 | 118 | 0.0 | 0.0 | 0.00 | 0.00 | 0.00 | 89 | 1008.9 |
| 20260905021603 | 81 | 118 | 0.0 | 0.0 | 0.00 | 0.00 | 0.00 | 89 | 1008.8 |
| 20260905021103 | 81 | 118 | 0.0 | 0.0 | 0.00 | 0.00 | 0.00 | 89 | 1008.7 |
| 20260905020604 | 81 | 118 | 0.0 | 0.0 | 0.00 | 0.00 | 0.00 | 88 | 1008.7 |
| 20260905020103 | 81 | 118 | 0.0 | 0.0 | 0.00 | 0.00 | 0.00 | 88 | 1008.7 |
| 20260905015604 | 81 | 118 | 0.0 | 0.0 | 0.00 | 0.00 | 0.00 | 87 | 1008.6 |
| 20260905015103 | 81 | 118 | 0.0 | 0.0 | 0.00 | 0.00 | 0.00 | 88 | 1008.6 |
| 20260905014604 | 81 | 118 | 0.0 | 0.0 | 0.00 | 0.00 | 0.00 | 87 | 1008.6 |
| 20260905014103 | 82 | 118 | 0.0 | 0.0 | 0.00 | 0.00 | 0.00 | 87 | 1008.5 |
| 20260905013603 | 82 | 118 | 0.0 | 0.0 | 0.00 | 0.00 | 0.00 | 87 | 1008.5 |
| 20260905013104 | 82 | 118 | 0.0 | 0.0 | 0.00 | 0.00 | 0.00 | 87 | 1008.5 |
| 20260905012603 | 82 | 118 | 0.0 | 0.0 | 0.00 | 0.00 | 0.00 | 87 | 1008.5 |
| 20260905012103 | 82 | 118 | 0.0 | 0.0 | 0.00 | 0.00 | 0.00 | 86 | 1008.5 |
| 20260905011603 | 82 | 118 | 0.0 | 0.0 | 0.00 | 0.00 | 0.00 | 86 | 1008.5 |
| 20260905010103 | 83 | 118 | 0.0 | 0.0 | 0.00 | 0.00 | 0.00 | 85 | 1008.5 |
| 20260905005604 | 83 | 118 | 0.0 | 0.0 | 0.00 | 0.00 | 0.00 | 85 | 1008.4 |
| 20260905005103 | 84 | 118 | 0.0 | 0.0 | 0.00 | 0.00 | 0.00 | 85 | 1008.3 |
| 20260905004603 | 84 | 118 | 0.0 | 0.0 | 0.00 | 0.00 | 0.00 | 85 | 1008.2 |
| 20260905004104 | 84 | 118 | 0.0 | 0.0 | 0.00 | 0.00 | 0.00 | 84 | 1008.2 |
| 20260905003603 | 84 | 118 | 0.0 | 0.0 | 0.00 | 0.00 | 0.00 | 83 | 1008.2 |
| 20260905002103 | 85 | 118 | 0.0 | 0.0 | 0.00 | 0.00 | 0.00 | 81 | 1008.2 |
| 20260905001604 | 86 | 118 | 0.0 | 0.0 | 0.00 | 0.00 | 0.00 | 80 | 1008.2 |
| 20260905001103 | 86 | 118 | 0.0 | 0.0 | 0.00 | 0.00 | 0.00 | 78 | 1008.3 |
| 20260905000604 | 86 | 118 | 0.0 | 0.0 | 0.00 | 0.00 | 0.00 | 78 | 1008.2 |
| 20260905000103 | 87 | 118 | 0.0 | 0.0 | 0.00 | 0.00 | 0.00 | 77 | 1008.1 |
| 20260904235604 | 87 | 118 | 0.0 | 0.0 | 0.00 | 0.00 | 0.00 | 77 | 1008.1 |
| 20260904234603 | 88 | 118 | 0.0 | 0.0 | 0.00 | 0.00 | 0.00 | 76 | 1008.1 |
| 20260904234104 | 89 | 118 | 0.0 | 0.0 | 0.00 | 0.00 | 0.00 | 74 | 1008.1 |
| 20260904233603 | 89 | 118 | 0.0 | 0.0 | 0.00 | 0.00 | 0.00 | 73 | 1008.1 |
| 20260904233104 | 89 | 118 | 0.0 | 0.0 | 0.00 | 0.00 | 0.00 | 73 | 1008.1 |
| 20260904231603 | 90 | 118 | 0.0 | 0.0 | 0.00 | 0.00 | 0.00 | 71 | 1008.1 |
| 20260904231104 | 90 | 118 | 0.0 | 0.0 | 0.00 | 0.00 | 0.00 | 70 | 1008.1 |
| 20260904230603 | 91 | 118 | 0.0 | 0.0 | 0.00 | 0.00 | 0.00 | 69 | 1008.0 |
| 20260904230104 | 91 | 118 | 0.0 | 0.0 | 0.00 | 0.00 | 0.00 | 69 | 1008.0 |
| 20260904225604 | 91 | 118 | 0.0 | 0.0 | 0.00 | 0.00 | 0.00 | 68 | 1008.0 |
| 20260904225103 | 91 | 118 | 0.0 | 0.0 | 0.00 | 0.00 | 0.00 | 67 | 1008.0 |